LEMUR-2-TOMHENDERSON (43561 NORAD) Tracking and Keplerian Element Data

This shows tracking and keplerian element data for the satellite.

Feedback or suggestion? Click here.




ElementValue
Catalog43561
NameLEMUR-2-TOMHENDERSON
Epoch Orbit4711
Epoch Day143.49851788
Epoch Year2019
RAAN181.516
Inclination51.6418
Eccentricity0.0008035
Argument of Perigee354.2245
Mean Anonmoly5.8641
Mean Motion15.2921006
Decay Rate8.12E-06
L11 43561U 18046H 19143.49851788 .00000812 00000-0 40735-4 0 9990
L22 43561 51.6418 181.5160 0008035 354.2245 5.8641 15.29210060 47112

Live tracking and technical data element details for LEMUR-2-TOMHENDERSON (NORAD 43561). LEMUR-2-TOMHENDERSON can be tracked NOW for your location showing map with azimuth and elevation plus other details from your city location.

Track the satellite on the map from your city or location and see movement details for azimuth, elevation, latitude, longitude, range, height, and movement on the map or in text.







IsCatalogInMostPopularTable: catalog: 43561, numindb: 158
Update: records affected: 1



GetName: 43561 LEMUR-2-TOMHENDERSON

Hit Count: updated at: Fri, 24 May 2019 21:23:47 GMT